Location: Balcones
(3.7244°N, 75.6017°W)
Time: 23:53:06
(UTC+00:00)

MOS 1 Rocket - Pass Details

Date: 13 December 2025
Orbit: 609 x 814 km, 97.4° (Epoch: 20 January)

Event Time Altitude Azimuth Distance (km) Brightness Sun altitude
Rises 23:27:00 0° 175° (S) 2,968 6.8 -8.4°
Reaches altitude 10° 23:29:10 10° 178° (S) 2,083 6.1 -8.9°
Maximum altitude 23:33:40 63° 259° (WSW) 771 3.9 -9.9°
Drops below altitude 10° 23:38:27 10° 340° (NNW) 2,205 5.9 -11.0°
Sets 23:40:49 0° 343° (NNW) 3,158 6.6 -11.5°
